This demonstration page uses our WeatherBlox Daily Observations layout. Learn more.

Left ArrowRight Arrow

39.95238, -75.16362

Hourly Observations for May 1, 2016

Temp ( °F °C ) Dew Point ( °F °C ) Humidity (%) Winds ( mph kmh ) Pressure ( in mb ) Visibility ( mi km ) Precip ( " mm )
12:54 am 00:54 Cloudy 51 10.6 36 2.2 56 56 S 6 9 30.23 1024 10 16 0.00 0.03
1:54 am 01:54 Cloudy with Light Rain 51 10.6 37 2.8 59 59 Calm 30.20 1023 10 16 0.00 0.03
2:54 am 02:54 Cloudy 50 10 38 3.3 63 63 S 5 7 30.18 1022 10 16 0.00 0.03
3:54 am 03:54 Cloudy with Light Rain 50 10 39 3.9 66 66 ESE 3 6 30.18 1022 10 16 0.00 0.03
4:54 am 04:54 Cloudy with Light Rain 50 10 40 4.4 68 68 ESE 3 6 30.19 1022 10 16 0.00 0.03
5:44 am 05:44 Cloudy with Light Rain 49 9.4 42 5.6 77 77 E 3 6 30.18 1022 9 14 0.00 0.03
5:54 am 05:54 Cloudy with Light Rain 49 9.4 42 5.6 77 77 ESE 5 7 30.19 1022 7 11 0.02 0.51
6:37 am 06:37 Cloudy with Light Rain 49 9.4 40 4.4 71 71 E 5 7 30.21 1023 6 10 0.03 0.76
6:51 am 06:51 Cloudy with Light Rain 48 9 39 4 71 71 ESE 7 11 30.21 1023 7 11 0.04 1.02
6:54 am 06:54 Cloudy with Light Rain 48 8.9 40 4.4 74 74 SE 7 11 30.20 1023 7 11 0.04 1.02
7:18 am 07:18 Cloudy with Light Rain 48 9 41 5 76 76 ESE 6 9 30.21 1023 5 8 0.00 0.00
7:54 am 07:54 Cloudy with Rain 47 8.3 41 5 80 80 E 7 11 30.20 1023 5 8 0.09 2.29
8:16 am 08:16 Cloudy with Light Rain 47 8.3 42 5.6 83 83 E 6 9 30.21 1023 5 8 0.04 1.02
8:34 am 08:34 Cloudy with Light Rain 48 8.9 43 6.1 83 83 SE 6 9 30.18 1022 5 8 0.07 1.78
8:54 am 08:54 Cloudy with Light Rain 47 8.3 42 5.6 83 83 E 9 15 30.20 1023 5 8 0.09 2.29
9:03 am 09:03 Cloudy with Light Rain 47 8.3 42 5.6 83 83 E 8 13 30.21 1023 6 10 0.01 0.25
9:54 am 09:54 Cloudy with Light Rain 47 8.3 42 5.6 83 83 ESE 9 15 30.19 1022 6 10 0.09 2.29
10:01 am 10:01 Cloudy with Light Rain 47 8.3 42 5.6 83 83 ESE 7 11 30.18 1022 8 13 0.00 0.03
10:40 am 10:40 Cloudy with Rain 48 8.9 43 6.1 83 83 E 9 15 30.18 1022 4 6 0.03 0.76
10:50 am 10:50 Cloudy with Light Rain 48 9 45 7 87 87 E 9 15 30.18 1022 7 11 0.05 1.27
10:54 am 10:54 Cloudy with Light Rain 48 8.9 44 6.7 86 86 E 8 13 30.18 1022 8 13 0.05 1.27
11:13 am 11:13 Cloudy with Light Rain 49 9.4 45 7.2 86 86 E 7 11 30.18 1022 8 13 0.01 0.25
11:22 am 11:22 Cloudy with Light Rain 49 9.4 45 7.2 86 86 E 8 13 30.18 1022 6 10 0.02 0.51
11:54 am 11:54 Cloudy with Rain 50 10 46 7.8 86 86 E 7 11 30.15 1021 5 8 0.07 1.78
12:16 pm 12:16 Cloudy with Rain 52 11 46 8 82 82 E 8 13 30.15 1021 4 6 0.00 0.00
12:41 pm 12:41 Cloudy with Light Rain 51 10.6 46 7.8 83 83 ESE 10 17 30.12 1020 5 8 0.07 1.78
12:54 pm 12:54 Cloudy with Light Rain 51 10.6 47 8.3 86 86 ESE 10 17 30.12 1020 6 10 0.08 2.03
1:54 pm 13:54 Cloudy with Light Rain 52 11.1 47 8.3 83 83 Calm 30.14 1021 9 14 0.05 1.27
2:24 pm 14:24 Cloudy 52 11.1 47 8.3 83 83 SE 7 11 30.12 1020 10 16 0.01 0.25
2:44 pm 14:44 Cloudy with Light Rain 52 11 46 8 82 82 SE 6 9 30.12 1020 9 14 0.00 0.00
2:54 pm 14:54 Cloudy with Light Rain 52 11.1 48 8.9 86 86 SE 6 9 30.11 1020 9 14 0.01 0.25
3:31 pm 15:31 Cloudy with Light Rain 53 11.7 48 8.9 83 83 SE 7 11 30.12 1020 3 5 0.00 0.03
3:54 pm 15:54 Cloudy with Light Rain 53 11.7 49 9.4 86 86 SE 3 6 30.10 1019 3 5 0.01 0.25
4:26 pm 16:26 Cloudy with Light Rain 53 11.7 49 9.4 86 86 E 6 9 30.09 1019 5 8 0.01 0.25
4:46 pm 16:46 Cloudy with Light Rain 53 11.7 49 9.4 86 86 ESE 7 11 30.09 1019 5 8 0.01 0.25
4:54 pm 16:54 Cloudy with Light Rain 53 11.7 49 9.4 86 86 E 6 9 30.07 1018 5 8 0.01 0.25
5:54 pm 17:54 Cloudy with Light Rain 53 11.7 49 9.4 86 86 ENE 6 9 30.06 1018 5 8 0.00 0.03
6:28 pm 18:28 Cloudy with Light Rain 53 11.7 49 9.4 86 86 NE 8 13 30.06 1018 3 5 0.00 0.03
6:43 pm 18:43 Cloudy with Light Rain 53 11.7 49 9.4 86 86 NE 6 9 30.06 1018 2 3 0.00 0.03
6:54 pm 18:54 Cloudy with Light Rain 53 11.7 50 10 89 89 NE 6 9 30.07 1018 2 3 0.00 0.03
7:54 pm 19:54 Cloudy 58 14.4 43 6.1 58 58 S 10 17 30.23 1024 10 16 0.00 0.00
7:59 pm 19:59 Cloudy with Light Rain 52 11.1 49 9.4 89 89 NE 8 13 30.06 1018 4 6 0.00 0.03
8:16 pm 20:16 Cloudy with Mist and Fog 52 11.1 49 9.4 89 89 ENE 5 7 30.09 1019 5 8 0.00 0.03
8:37 pm 20:37 Cloudy 52 11.1 48 8.9 86 86 ENE 8 13 30.09 1019 7 11 0.00 0.03
8:54 pm 20:54 Cloudy 52 11.1 48 8.9 86 86 ENE 9 15 30.07 1018 7 11 0.00 0.03
9:12 pm 21:12 Cloudy 52 11.1 48 8.9 86 86 ENE 7 11 30.06 1018 10 16 0.00 0.00
9:54 pm 21:54 Cloudy 52 11.1 48 8.9 86 86 ENE 6 9 30.08 1019 10 16 0.00 0.00
10:52 pm 22:52 Cloudy 52 11 48 9 88 88 E 9 15 30.06 1018 10 16 0.00 0.00
10:54 pm 22:54 Cloudy 51 10.6 48 8.9 89 89 ENE 7 11 30.06 1018 10 16 0.00 0.00
11:43 pm 23:43 Cloudy with Drizzle 51 10.6 47 8.3 86 86 ENE 6 9 30.06 1018 7 11 0.00 0.03
11:54 pm 23:54 Cloudy with Drizzle 51 10.6 47 8.3 86 86 ENE 7 11 30.07 1018 7 11 0.00 0.03

Powered by AerisWeather